www.pogodaiklimat.ru

Погода и климат >> Архив погоды >> Австрия >> Райхенау-ан-дер-Ракс


ПОГОДА в Райхенау-ан-дер-Раксе

  • Прогноз погоды в Райхенау-ан-дер-Раксе
  • Монитор погоды в Райхенау-ан-дер-Раксе

АРХИВ ПОГОДЫ в Райхенау-ан-дер-Раксе

Время (UTC), дата Ветер
(напр.,м/с)
 
Видим.   Явления Облачность Т
(С)
Тd
(С)
f
(%)
Тe
(С)
Тes
(С)
Комфортность P
(гПа)
Po
(гПа)
Тmin
(С)
Tmax
(С)
R
(мм)
R24
(мм)
S
(см)
16 17.06 В 2 н/о н/о +22.8 +14.3 59 +26 +26 жарко 1017.7 962.6
17 17.06 С 1 н/о н/о +22.4 +14.2 60 +26 +26 жарко 1017.6 962.4
18 17.06 В 1 н/о н/о +22.0 +14.3 62 +25 +25 комфорт 1017.7 962.4 +19.2 +24.4
19 17.06 штиль 0 н/о н/о +20.9 +14.5 67 +24 +24 комфорт 1017.9 962.4
20 17.06 штиль 0 н/о н/о +19.6 +14.9 74 +21 +21 комфорт 1018.9 963.1
21 17.06 З 1 н/о н/о +18.7 +15.4 81 +21 +21 комфорт 1019.0 963.1
22 17.06 штиль 0 н/о н/о +18.3 +15.8 85 +19 +19 1019.1 963.1
23 17.06 штиль 0 н/о н/о +17.0 +15.7 92 +17 +17 1019.1 962.9
00 18.06 З 1 н/о н/о +15.7 +15.4 98 +16 +16 1019.4 962.9
01 18.06 штиль 0 н/о н/о +14.7 +14.3 97 +14 +14 1018.9 962.2
02 18.06 штиль 0 н/о н/о +14.1 +13.9 99 +14 +14 1018.7 961.9
03 18.06 штиль 0 н/о н/о +14.1 +13.9 99 +14 +14 1018.7 961.9
04 18.06 ЮВ 1 н/о н/о +14.2 +14.0 99 +14 +14 1018.9 962.1
05 18.06 штиль 0 н/о н/о +15.5 +14.7 95 +15 +15 1018.7 962.2
06 18.06 С 1 н/о н/о +18.1 +15.2 83 +19 +19 1018.2 962.2 +13.7 +22.0
07 18.06 ЮВ 1 н/о н/о +20.9 +14.0 65 +25 +25 комфорт 1017.4 961.9
08 18.06 СВ 1 н/о н/о +23.1 +13.0 53 +26 +26 жарко 1017.0 961.9
09 18.06 ЮВ 2 н/о н/о +24.6 +13.8 51 +27 +27 жарко 1016.1 961.4
10 18.06 В 1 н/о н/о +24.6 +13.5 50 +27 +27 жарко 1015.8 961.1
11 18.06 В 3 н/о н/о +25.5 +13.7 48 +28 +28 жарко 1015.0 960.5
12 18.06 В 2 н/о н/о +25.7 +13.5 47 +28 +28 жарко 1014.6 960.1
13 18.06 ЮВ 3 н/о н/о +26.5 +13.9 46 +29 +29 жарко 1014.0 959.7
14 18.06 ЮВ 3 н/о н/о +26.7 +13.8 45 +29 +29 жарко 1013.4 959.2
15 18.06 В 2 н/о н/о +26.4 +14.5 48 +29 +29 жарко 1013.0 958.8
16 18.06 В 3 н/о н/о +25.7 +14.1 49 +28 +28 жарко 1013.1 958.7
17 18.06 В 1 н/о н/о +25.2 +14.3 51 +28 +28 жарко 1013.3 958.8
18 18.06 СЗ 1 н/о н/о +22.6 +15.3 63 +26 +26 жарко 1013.9 959.0 +17.4 +27.0 0.0
19 18.06 штиль 0 н/о н/о +20.8 +16.0 74 +24 +24 комфорт 1014.5 959.2
20 18.06 ЮВ 1 н/о н/о +19.2 +16.7 85 +22 +22 комфорт 1015.2 959.6
21 18.06 З 1 н/о н/о +17.5 +15.9 90 +19 +19 1015.4 959.5
22 18.06 штиль 0 н/о н/о +16.4 +15.5 94 +16 +16 1015.3 959.2
23 18.06 штиль 0 н/о н/о +15.5 +15.1 97 +15 +15 1015.5 959.2
00 19.06 З 1 н/о н/о +14.9 +14.8 99 +15 +15 1015.7 959.2
01 19.06 штиль 0 н/о н/о +14.4 +14.2 99 +14 +14 1015.1 958.6
02 19.06 штиль 0 н/о н/о +13.9 +13.7 99 +13 +13 1015.1 958.5
03 19.06 штиль 0 н/о н/о +13.4 +13.2 99 +13 +13 1014.8 958.1
04 19.06 штиль 0 н/о н/о +13.2 +13.0 99 +13 +13 1014.9 958.1
05 19.06 СЗ 1 н/о н/о +14.8 +14.4 97 +15 +15 1014.4 958.0
06 19.06 С 1 н/о н/о +18.3 +15.4 83 +20 +20 1013.5 957.8 +13.0 +23.0
07 19.06 штиль 0 н/о н/о +21.8 +15.7 68 +25 +25 комфорт 1012.8 957.8
08 19.06 В 1 н/о н/о +25.3 +14.8 52 +28 +28 жарко 1012.0 957.6
09 19.06 В 2 н/о н/о +26.7 +14.4 47 +29 +29 жарко 1011.2 957.1
10 19.06 В 2 н/о н/о +26.4 +13.1 44 +28 +28 жарко 1010.9 956.8
11 19.06 С 1 н/о н/о +23.5 +13.6 54 +26 +26 жарко 1011.5 956.8 0.0
12 19.06 В 1 н/о н/о +23.0 +15.1 61 +27 +27 душно 1011.4 956.7 0.0
13 19.06 В 1 н/о н/о +24.7 +15.9 58 +28 +28 душно 1010.9 956.5
14 19.06 В 1 н/о н/о +26.6 +15.1 49 +29 +29 жарко 1009.5 955.5
15 19.06 ЮВ 1 н/о н/о +26.1 +14.5 49 +29 +29 жарко 1009.2 955.1
16 19.06 З 4 н/о н/о +20.9 +12.8 60 +24 +24 комфорт 1011.8 956.6 0.0
17 19.06 З 4 н/о в посл. час осадки н/о +19.3 +13.9 71 +21 +21 комфорт 1012.1 956.6 0.1
18 19.06 З 2 н/о {осадки} н/о +17.6 +15.1 85 +18 +18 1012.5 956.7 +17.5 +27.5 0.1
19 19.06 СЗ 2 н/о в посл. час осадки н/о +17.5 +14.8 84 +18 +18 1012.2 956.4 0.0
20 19.06 СЗ 3 н/о н/о +16.7 +15.4 92 +16 +16 1012.7 956.8
21 19.06 З 1 н/о {осадки} н/о +15.9 +15.1 95 +17 +17 1013.4 957.3 0.0
22 19.06 ЮВ 1 н/о н/о +15.0 +14.3 96 +15 +15 1013.9 957.5
23 19.06 штиль 0 н/о н/о +14.2 +13.8 97 +14 +14 1013.6 957.1
00 20.06 З 1 н/о {осадки} н/о +13.2 +13.0 99 +13 +13 1013.6 956.9 0.0
01 20.06 СЗ 3 н/о н/о +13.9 +13.1 95 +13 +13 1013.5 956.9
02 20.06 З 2 н/о н/о +13.4 +12.7 96 +13 +13 1013.3 956.6
03 20.06 З 2 н/о н/о +13.3 +12.6 96 +12 +12 1013.0 956.3
04 20.06 З 2 н/о н/о +13.8 +12.8 94 +13 +13 1013.1 956.5
05 20.06 З 3 н/о н/о +14.6 +13.1 91 +14 +14 1012.9 956.5
06 20.06 СЗ 3 н/о н/о +17.9 +14.0 78 +18 +18 1012.4 956.7 +13.0 +18.1 0.0
07 20.06 В 1 н/о н/о +20.8 +13.5 63 +24 +24 комфорт 1012.2 957.0
08 20.06 СЗ 1 н/о н/о +24.0 +13.8 53 +26 +26 жарко 1011.6 957.0
09 20.06 ЮВ 1 н/о н/о +25.7 +14.1 49 +28 +28 жарко 1011.2 956.9
10 20.06 В 3 н/о н/о +26.4 +13.8 46 +29 +29 жарко 1011.0 956.9
11 20.06 В 3 н/о н/о +27.3 +15.1 47 +30 +30 душно 1010.6 956.7
12 20.06 В 1 н/о н/о +27.0 +14.0 45 +29 +29 жарко 1010.4 956.4
13 20.06 В 2 н/о в посл. час осадки н/о +24.8 +16.0 58 +28 +28 жарко 1010.9 956.5 0.1
14 20.06 СЗ 2 н/о в посл. час осадки н/о +22.3 +19.1 82 +28 +28 душно 1011.4 956.6 0.0
15 20.06 З 1 н/о {ливн. осадки} н/о +23.3 +19.7 80 +30 +30 очень
душно
1011.0 956.5 0.1
16 20.06 СЗ 1 н/о н/о +22.2 +18.8 81 +28 +28 душно 1010.7 956.0
17 20.06 Ю 1 н/о н/о +21.5 +16.5 73 +25 +25 комфорт 1011.9 956.9 0.0
18 20.06 штиль 0 н/о {ливн. осадки} н/о +20.2 +16.9 81 +23 +23 комфорт 1012.9 957.6 +16.9 +28.2 0.1
19 20.06 СЗ 1 н/о осадки н/о +19.1 +16.9 87 +22 +22 комфорт 1013.3 957.8 0.1
20 20.06 ЮЗ 1 н/о н/о +16.3 +16.2 99 +17 +17 1016.0 959.8 18
21 20.06 В 1 н/о ливневой дождь {осадки} н/о +16.4 +16.3 99 +17 +17 1016.1 959.9 20
22 20.06 СЗ 1 н/о н/о +15.5 +15.2 98 +16 +16 1016.9 960.5 6
23 20.06 ЮЗ 1 н/о н/о +15.3 +15.2 99 +16 +16 1016.5 960.1 6
00 21.06 З 2 н/о ливневой дождь н/о +14.8 +14.6 99 +14 +14 1016.9 960.3 31
01 21.06 З 1 н/о н/о +14.8 +14.6 99 +15 +15 1016.6 960.1
02 21.06 С 1 н/о н/о +14.4 +14.0 97 +15 +15 1016.5 959.9
03 21.06 З 1 н/о н/о +14.1 +13.9 99 +14 +14 1017.0 960.3
04 21.06 З 2 н/о н/о +14.6 +13.6 94 +14 +14 1017.0 960.4
05 21.06 С 1 н/о н/о +15.5 +14.3 93 +16 +16 1016.7 960.3
06 21.06 З 3 н/о н/о +19.5 +12.3 63 +21 +21 комфорт 1016.1 960.4 +13.8 +20.2 31
07 21.06 СЗ 4 н/о н/о +21.0 +11.6 55 +23 +23 комфорт 1016.3 960.9
08 21.06 СЗ 3 н/о н/о +22.8 +11.8 50 +25 +25 комфорт 1016.1 961.0
09 21.06 З 2 н/о н/о +23.9 +11.6 46 +25 +25 комфорт 1016.1 961.2
10 21.06 З 2 н/о н/о +23.8 +11.8 47 +25 +25 комфорт 1016.3 961.4
11 21.06 ЮВ 1 н/о н/о +24.1 +13.0 50 +26 +26 жарко 1015.9 961.1
12 21.06 З 1 н/о н/о +24.3 +12.9 49 +26 +26 жарко 1015.6 960.8 0.0
13 21.06 штиль 0 н/о н/о +25.3 +13.5 48 +27 +27 жарко 1014.8 960.3 0.0
14 21.06 З 1 н/о н/о +26.5 +12.2 41 +28 +28 жарко 1014.1 959.8
15 21.06 ЮЗ 1 н/о н/о +26.2 +12.6 43 +28 +28 жарко 1014.0 959.6 0.0
16 21.06 В 2 н/о н/о +26.2 +13.3 45 +28 +28 жарко 1013.9 959.6
17 21.06 СЗ 2 н/о н/о +22.9 +15.5 63 +27 +27 душно 1014.8 959.9
18 21.06 З 1 н/о в посл. час осадки н/о +20.5 +16.8 79 +25 +25 комфорт 1016.3 960.9 +19.0 +27.3 0.1
19 21.06 СЗ 1 н/о осадки н/о +18.5 +18.2 98 +20 +20 1018.3 962.4 1
20 21.06 СЗ 1 н/о осадки н/о +17.6 +17.1 97 +19 +19 1019.2 963.1 2
21 21.06 СЗ 1 н/о осадки н/о +17.0 +16.9 99 +18 +18 1019.6 963.4 6
22 21.06 СЗ 2 н/о осадки н/о +16.9 +16.8 99 +17 +17 1019.2 963.0 1
23 21.06 СЗ 1 н/о ливневой дождь н/о +16.3 +15.7 96 +17 +17 1019.3 962.9 0.3
00 22.06 З 1 н/о осадки {ливн. осадки} н/о +16.1 +15.8 98 +17 +17 1019.3 962.9 8
01 22.06 штиль 0 н/о в посл. час осадки н/о +16.1 +15.8 98 +16 +16 1019.0 962.6 0.0
02 22.06 штиль 0 н/о н/о +15.8 +15.7 99 +16 +16 1019.0 962.5 0.0
03 22.06 штиль 0 н/о {осадки} н/о +15.7 +15.6 99 +15 +15 1019.1 962.6 0.0
04 22.06 Ю 1 н/о н/о +15.8 +15.7 99 +16 +16 1019.2 962.7
05 22.06 штиль 0 н/о в посл. час осадки н/о +16.1 +15.8 98 +16 +16 1019.5 963.1 0.1
06 22.06 С 1 н/о {ливн. осадки} н/о +16.5 +16.1 97 +17 +17 1019.3 963.0 +15.4 +21.1 8
07 22.06 С 1 н/о н/о +17.8 +16.2 90 +19 +19 1019.2 963.1
08 22.06 штиль 0 н/о н/о +18.9 +16.9 88 +20 +20 1018.9 963.1
09 22.06 В 1 н/о н/о +20.5 +16.6 78 +25 +25 комфорт 1018.6 963.1
10 22.06 В 2 н/о осадки н/о +19.2 +17.2 88 +22 +22 комфорт 1019.3 963.5 0.0
11 22.06 С 1 н/о в посл. час осадки н/о +20.1 +15.8 76 +24 +24 комфорт 1017.9 962.3 0.3
12 22.06 ЮВ 3 н/о {осадки} н/о +21.9 +16.9 73 +26 +26 душно 1017.3 962.1 0.3
13 22.06 В 2 н/о н/о +21.5 +16.1 71 +25 +25 комфорт 1016.8 961.5
14 22.06 С 1 н/о н/о +21.8 +15.4 67 +25 +25 комфорт 1016.0 960.8
15 22.06 В 2 н/о н/о +21.7 +15.6 68 +25 +25 комфорт 1015.9 960.7 0.0
16 22.06 СЗ 1 н/о осадки н/о +19.1 +18.3 95 +22 +22 комфорт 1015.3 959.7 0.8
17 22.06 СЗ 1 н/о осадки н/о +18.6 +18.3 98 +21 +21 комфорт 1015.4 959.7 1
18 22.06 С 1 н/о в посл. час осадки н/о +18.2 +17.9 98 +20 +20 1015.7 959.9 +16.4 +22.1 2
19 22.06 В 1 н/о н/о +18.1 +18.0 99 +19 +19 1015.3 959.5
20 22.06 штиль 0 н/о н/о +17.6 +17.5 99 +18 +18 1015.7 959.8
21 22.06 С 1 н/о н/о +17.8 +17.7 99 +19 +19 1015.5 959.7
22 22.06 СВ 1 н/о н/о +17.7 +17.6 99 +19 +19 1015.6 959.7
23 22.06 В 2 н/о н/о +17.3 +17.2 99 +18 +18 1015.5 959.6
00 23.06 штиль 0 н/о н/о +17.2 +16.8 97 +17 +17 1015.5 959.5
01 23.06 ЮВ 1 н/о н/о +16.8 +16.4 97 +18 +18 1015.6 959.5
02 23.06 В 1 н/о н/о +16.5 +16.2 98 +17 +17 1015.8 959.7
03 23.06 штиль 0 н/о н/о +16.3 +16.2 99 +16 +16 1015.7 959.5
04 23.06 СВ 1 н/о н/о +16.4 +16.3 99 +17 +17 1015.9 959.7
05 23.06 СВ 1 н/о н/о +16.7 +16.4 98 +18 +18 1015.9 959.8
06 23.06 ЮВ 1 н/о н/о +17.1 +16.0 93 +18 +18 1016.0 960.0 +16.3 +18.4
07 23.06 СВ 1 н/о н/о +17.3 +15.7 90 +18 +18 1016.3 960.3 0.0
08 23.06 ЮВ 1 н/о н/о +18.5 +16.2 86 +20 +20 1016.1 960.3 0.0
09 23.06 ЮВ 1 н/о н/о +19.2 +15.7 80 +22 +22 комфорт 1016.0 960.3 0.0
10 23.06 В 2 н/о осадки н/о +17.4 +17.1 98 +18 +18 1017.2 961.2 4
11 23.06 З 1 н/о в посл. час осадки н/о +18.1 +17.5 96 +19 +19 1017.3 961.4 2
12 23.06 штиль 0 н/о ливневой дождь {осадки} н/о +18.4 +17.4 94 +19 +19 1017.4 961.6 7
13 23.06 З 1 н/о в посл. час осадки н/о +18.8 +17.5 92 +21 +21 комфорт 1017.4 961.6 0.7
14 23.06 ЮЗ 1 н/о в посл. час осадки н/о +19.3 +17.1 87 +22 +22 комфорт 1017.2 961.5 0.1
15 23.06 Ю 1 н/о осадки {ливн. осадки} н/о +20.3 +17.9 86 +25 +25 комфорт 1016.6 961.2 0.9
16 23.06 штиль 0 н/о н/о +19.8 +18.5 92 +22 +22 комфорт 1016.8 961.3 0.0
17 23.06 СЗ 1 н/о н/о +21.5 +16.1 71 +25 +25 комфорт 1016.7 961.4
18 23.06 З 1 н/о {ливн. осадки} н/о +19.0 +16.1 83 +21 +21 комфорт 1017.7 961.9 +16.9 +21.7 8
19 23.06 В 1 н/о н/о +17.9 +16.3 90 +19 +19 1018.1 962.1
20 23.06 Ю 2 н/о н/о +18.2 +15.7 85 +19 +19 1018.9 962.9 0.0
21 23.06 Ю 1 н/о н/о +18.5 +16.0 85 +20 +20 1019.3 963.3 0.0
22 23.06 З 1 н/о в посл. час осадки н/о +18.0 +16.7 92 +19 +19 1019.6 963.5 0.1
23 23.06 З 1 н/о н/о +17.4 +16.9 97 +18 +18 1020.2 964.0 0.0
00 24.06 ЮЗ 1 н/о {осадки} н/о +17.8 +16.7 93 +19 +19 1020.2 964.1 0.1
01 24.06 В 1 н/о н/о +17.3 +16.2 93 +18 +18 1020.7 964.4
02 24.06 Ю 1 н/о н/о +17.0 +16.2 95 +18 +18 1020.7 964.4
03 24.06 штиль 0 н/о н/о +15.8 +15.7 99 +16 +16 1020.8 964.2
04 24.06 штиль 0 н/о н/о +15.2 +15.1 99 +15 +15 1021.3 964.6
05 24.06 З 1 н/о н/о +16.4 +15.0 91 +17 +17 1021.1 964.6
06 24.06 СЗ 2 н/о н/о +20.1 +13.7 67 +23 +23 комфорт 1020.2 964.4 +15.2 +20.3 0.1
07 24.06 СЗ 4 н/о н/о +20.6 +13.3 63 +23 +23 комфорт 1020.4 964.7
08 24.06 З 4 н/о н/о +21.9 +13.5 59 +25 +25 комфорт 1020.4 964.9
09 24.06 З 1 н/о н/о +23.2 +14.8 59 +27 +27 душно 1020.3 965.1
10 24.06 СЗ 3 н/о н/о +24.0 +14.6 56 +27 +27 жарко 1020.1 965.1
11 24.06 З 3 н/о н/о +25.0 +14.8 53 +28 +28 жарко 1019.6 964.8
12 24.06 ЮЗ 1 н/о н/о +25.9 +14.3 49 +28 +28 жарко 1019.5 964.8
13 24.06 В 3 н/о н/о +24.9 +14.6 53 +28 +28 жарко 1019.8 964.9
14 24.06 В 1 н/о н/о +25.4 +14.9 52 +28 +28 жарко 1019.9 965.1
15 24.06 ЮВ 2 н/о н/о +26.4 +14.5 48 +29 +29 жарко 1019.7 965.1
16 24.06 СЗ 1 н/о н/о +25.3 +13.8 49 +28 +28 жарко 1020.1 965.3

 

Местоположение метеостанции Райхенау-ан-дер-Ракс (Австрия): широта 47.70 долгота 15.83 высота над уровнем моря 486 м.

В архиве по умолчанию представлена погода в Райхенау-ан-дер-Раксе за последнюю неделю. Архивные данные за месяц целиком и за предыдущие месяцы, начиная с января 2011 года, Вы можете получить, выбрав интересующий диапазон дат из раскрывающегося списка и нажав кнопку "Ввод!".


*Определитесь, кто Вы:
робот инопланетянин человек

Внимание! Время в таблицах - всемирное. Для получения местного времени необходимо прибавить поправку, которая равна 1 ч.

Смотрите также архив погоды в соседних городах и на ближайших метеорологических станциях:

Погода в Раксе (Австрия) (4 км)
Погода в Семмеринге (Австрия) (8 км)
Погода в Хиршенкогеле (Австрия) (9 км)
Погода в Пухберг-ам-Шнеберге (Австрия) (10 км)
Погода в Марияхильфберге (Австрия) (19 км)
Погода в Хоэ-Ванде (Австрия) (20 км)
Погода в Мёнихкирхене (Австрия) (25 км)
Погода в Фишбахе (Австрия) (32 км)
Погода в Винер-Нойштадт (Австрия) (33 км)
Погода в Крумбахе (Австрия) (33 км)

Пояснения к столбцам:

Ветер - указаны скорость ветра в м/с - средняя за 10 мин, порывы в срок и между сроками (в фигурных скобках) и направление, откуда дует ветер: С - северный, СВ - северо-восточный, В - восточный, ЮВ - юго-восточный, Ю - южный, ЮЗ - юго-западный, З - западный, СЗ - северо-западный.
Видимость - горизонтальная дальность видимости в метрах или километрах. При видимости от 1 до 10 км при отсутствии осадков обычно наблюдается дымка, при ухудшении видимости до 1 км и менее - туман. В сухую погоду видимость может ухудшаться дымом, пылью или мглою.
Явления - указаны атмосферные явления, наблюдавшиеся в срок или в последний час перед сроком; фигурными скобками обозначены явления, наблюдавшиеся между сроками (за 1-3 часа до срока); квадратными скобками обозначены град или гололедные отложения с указанием их диаметра в мм.
Облачность - указаны через наклонную черту общая и нижняя облачность в баллах и высота нижней границы облаков в метрах; квадратными скобками обозначены формы облаков: Ci - перистые, Cs - перисто-слоистые, Cc - перисто-кучевые, Ac - высококучевые, As - высокослоистые, Sc - слоисто-кучевые, Ns - слоисто-дождевые, Cu - кучевые, Cb - кучево-дождевые. Подробнее классификацию облаков см. в Атласе облаков (PDF).
T - Температура воздуха - температура, измеренная на высоте 2 м над землей.
Td - Температура точки росы - температура, при понижении до которой содержащийся в воздухе водяной пар достигнет насыщения.
f - Относительная влажность воздуха - влажноcть воздуха, измеренная на высоте 2 м над землей.
Te - Эффективная температура - температура, которую ощущает одетый по сезону человек в тени. Характеристика душности погоды. При расчете учитывается влияние влажности воздуха и скорости ветра на теплоощущения человека.
Tes - Эффективная температура на солнце - температура, которую ощущает человек, с поправкой на солнечный нагрев. Характеристика знойности погоды. Зависит от высоты солнца над горизонтом, облачности и скорости ветра. Ночью, в пасмурную погоду, а также при ветре 12 м/с и более поправка равна нулю.
P - Атмосферное давление - приведенное к уровню моря атмосферное давление.
Po - Атмосферное давление - измеренное на уровне метеостанции атмосферное давление.
Tmin - Минимальная температура - минимум температуры воздуха на высоте 2 м над землей.
Tmax - Максимальная температура - максимум температуры воздуха на высоте 2 м над землей.
R - Количество осадков - Количество выпавших осадков за период времени, мм. При наведении курсора мыши на число - период времени, за который выпало указанное количество осадков.
R24 - Количество осадков - Количество выпавших осадков за 24 часа, мм.
S - Снежный покров - Высота снежного покрова, см. При наведении курсора мыши на число - состояние снежного покрова и степень покрытия местности в баллах.